Regional Weather Roundup
Issued by NWS Bismarck, ND

Home | Current Version | Previous Version | Text Only | Print | Product List | Glossary On
Versions: 1 2 3 4 5 6 7 8 9 10 11 12 13 14 15 16 17 18 19 20 21 22 23 24 25 26 27 28 29 30 31 32 33 34 35 36 37 38 39 40 41 42 43 44 45 46 47 48 49 50
000
ASUS43 KBIS 241310
RWRBIS

NWR BROADCAST TEXT
NATIONAL WEATHER SERVICE BISMARCK ND
700 AM CST FRI NOV 24 2017

NOTE: "FAIR" INDICATES FEW OR NO CLOUDS BELOW 12,000 FEET WITH NO
SIGNIFICANT WEATHER AND/OR OBSTRUCTIONS TO VISIBILITY.


CITY           SKY/WX    TMP DP  RH WIND       PRES   REMARKS
WILLISTON      CLOUDY    42  36  79 NW15      29.53R
MINOT          LGT RAIN  42  38  85 W18G25    29.40R
MINOT AFB      CLOUDY    41  38  87 NW17      29.39R
BISMARCK       CLOUDY    53  46  77 W14       29.39F
DICKINSON      CLOUDY    47  42  83 W29G35    29.46R
GARRISON         N/A     40  38  93 NW20G31   29.42R
HETTINGER ARPT CLOUDY    45  42  89 W13       29.55R
JAMESTOWN      LGT RAIN  48  41  76 W13       29.36R
CARRINGTON     FAIR      45  41  87 W13       29.36S
HAZEN          CLOUDY    48  46  93 NW14G21   29.42R
LINTON           N/A     48  36  61 W12       29.47R
MANDAN         PTSUNNY   50  46  87 W17G25    29.39F
OAKES            N/A     46  37  71 W10       29.37R
RUGBY          CLOUDY    37  37 100 W13       29.37R
STANLEY        CLOUDY    39  39 100 NW18G28   29.49R
TIOGA          CLOUDY    37  37 100 NW14G20   29.50R
WATFORD CITY   PTSUNNY   41  41 100 NW13G20   29.51R
$$

CITY           SKY/WX    TMP DP  RH WIND       PRES   REMARKS
GRAND FORKS    LGT RAIN  38  36  92 W8        29.29R
GRAND FORKS AF LGT RAIN  39  37  93 NW9       29.31R
DEVILS LAKE    LGT RAIN  38  36  92 W9        29.34R
FARGO          CLOUDY    46  37  71 CALM      29.30R
CANDO          CLOUDY    37  37 100 W10       29.35R
CAVALIER       CLOUDY    37  36  93 W10       29.29R
GRAFTON        FAIR      36  36 100 NW10      29.30R
GWINNER          N/A     48  37  66 W12       29.34S
LANGDON        CLOUDY    37  37 100 NW10      29.30R
ROLLA          CLOUDY    41  34  75 NW16      29.34R
WALHALLA       FAIR      41  41 100 W13       29.28R
$$

CITY           SKY/WX    TMP DP  RH WIND       PRES   REMARKS
ABERDEEN       PTCLDY    40  35  83 CALM      29.40R
MOBRIDGE       CLOUDY    49  36  61 N6        29.45R
RAPID CITY     PTCLDY    56  34  43 N37G48    29.61R
GLASGOW        CLOUDY    40  36  86 W12       29.62R
SIDNEY         CLOUDY    42  37  82 NW12      29.56R
WOLF POINT     CLOUDY    40  35  83 W12       29.60R
GLENDIVE       CLEAR     42  36  79 NW18G26   29.61R
MILES CITY     MOCLDY    43  39  86 NW10      29.67R
BAKER          CLOUDY    44  41  89 W17       29.60R
$$

CITY           SKY/WX    TMP DP  RH WIND       PRES   REMARKS
BILLINGS       PTCLDY    47  25  42 NW20G31   29.75R
GREAT FALLS    CLEAR     34  20  56 SW17      29.79R
REGINA         CLEAR     36  34  93 W16       29.46R
ESTEVAN        LGT RAIN  37  34  87 W15       29.46R
$$




USA.gov is the U.S. government's official web portal to all federal, state and local government web resources and services.